| time (UTC) | temp C | wind direction | speed KPH | gust KPH | rain 1hr cm | rain 24hr cm | rain mn cm | humidity % | barometer mb |
| 20260510190557 | 18 | 252 | 0.0 | 0.0 | 0.00 | 1.14 | 0.15 | 79 | 1010.5 |
| 20260510190046 | 18 | 246 | 0.0 | 0.0 | 0.00 | 1.32 | 0.15 | 78 | 1010.5 |
| 20260510185559 | 19 | 175 | 0.0 | 0.0 | 0.00 | 1.32 | 0.15 | 77 | 1010.7 |
| 20260510185050 | 19 | 211 | 0.0 | 0.0 | 0.00 | 1.32 | 0.15 | 77 | 1010.7 |
| 20260510184604 | 19 | 277 | 0.0 | 0.0 | 0.00 | 1.32 | 0.15 | 76 | 1010.6 |
| 20260510184118 | 19 | 276 | 0.0 | 0.0 | 0.00 | 1.32 | 0.15 | 76 | 1010.5 |
| 20260510183549 | 20 | 215 | 0.0 | 0.0 | 0.00 | 1.32 | 0.15 | 76 | 1010.5 |
| 20260510183043 | 20 | 242 | 0.0 | 0.0 | 0.00 | 1.32 | 0.15 | 76 | 1010.4 |
| 20260510182554 | 20 | 286 | 0.0 | 0.0 | 0.00 | 1.32 | 0.15 | 74 | 1010.4 |
| 20260510182109 | 20 | 248 | 0.0 | 0.0 | 0.00 | 1.32 | 0.15 | 77 | 1010.4 |
| 20260510181542 | 20 | 160 | 0.0 | 0.0 | 0.00 | 1.32 | 0.15 | 75 | 1010.4 |
| 20260510181118 | 20 | 158 | 0.0 | 0.0 | 0.00 | 1.32 | 0.15 | 73 | 1010.4 |
| 20260510180546 | 20 | 205 | 0.0 | 1.6 | 0.00 | 1.32 | 0.15 | 75 | 1010.3 |
| 20260510180100 | 20 | 259 | 0.0 | 4.8 | 0.00 | 1.32 | 0.15 | 74 | 1010.4 |
| 20260510175550 | 20 | 80 | 0.0 | 4.8 | 0.00 | 1.32 | 0.15 | 77 | 1010.4 |
| 20260510175041 | 20 | 95 | 0.0 | 1.6 | 0.00 | 1.32 | 0.15 | 77 | 1010.5 |
| 20260510174553 | 19 | 293 | 0.0 | 4.8 | 0.00 | 1.32 | 0.15 | 76 | 1010.4 |
| 20260510174045 | 19 | 324 | 0.0 | 4.8 | 0.00 | 1.32 | 0.15 | 76 | 1010.5 |
| 20260510173559 | 19 | 114 | 0.0 | 1.6 | 0.00 | 1.32 | 0.15 | 79 | 1010.7 |
| 20260510173051 | 18 | 107 | 0.0 | 1.6 | 0.00 | 1.32 | 0.15 | 80 | 1010.6 |
| 20260510172544 | 18 | 119 | 0.0 | 1.6 | 0.03 | 1.32 | 0.15 | 79 | 1010.6 |
| 20260510172056 | 18 | 132 | 0.0 | 1.6 | 0.03 | 1.32 | 0.15 | 81 | 1010.5 |
| 20260510171606 | 18 | 100 | 0.0 | 1.6 | 0.03 | 1.32 | 0.15 | 80 | 1010.6 |
| 20260510171120 | 18 | 254 | 0.0 | 3.2 | 0.03 | 1.32 | 0.15 | 81 | 1010.6 |
| 20260510170551 | 18 | 211 | 0.0 | 3.2 | 0.03 | 1.32 | 0.15 | 81 | 1010.6 |
| 20260510170042 | 17 | 293 | 0.0 | 1.6 | 0.03 | 1.32 | 0.15 | 82 | 1010.4 |
| 20260510165616 | 17 | 286 | 0.0 | 3.2 | 0.03 | 1.32 | 0.15 | 83 | 1010.4 |
| 20260510165048 | 17 | 155 | 0.0 | 3.2 | 0.03 | 1.32 | 0.15 | 84 | 1010.5 |
| 20260510164540 | 17 | 183 | 0.0 | 3.2 | 0.03 | 1.32 | 0.15 | 86 | 1010.6 |
| 20260510164113 | 17 | 111 | 0.0 | 3.2 | 0.03 | 1.32 | 0.15 | 88 | 1010.7 |
| 20260510163544 | 16 | 121 | 0.0 | 1.6 | 0.03 | 1.32 | 0.15 | 89 | 1010.9 |
| 20260510163056 | 16 | 290 | 0.0 | 1.6 | 0.03 | 1.32 | 0.15 | 88 | 1010.9 |
| 20260510162548 | 16 | 280 | 0.0 | 1.6 | 0.00 | 1.30 | 0.13 | 89 | 1010.9 |
| 20260510162039 | 15 | 239 | 0.0 | 1.6 | 0.00 | 1.30 | 0.13 | 89 | 1010.9 |
| 20260510161555 | 15 | 269 | 0.0 | 1.6 | 0.00 | 1.30 | 0.13 | 90 | 1010.9 |
| 20260510161046 | 15 | 215 | 0.0 | 1.6 | 0.00 | 1.30 | 0.13 | 91 | 1010.8 |
| 20260510160558 | 15 | 127 | 0.0 | 1.6 | 0.00 | 1.30 | 0.13 | 91 | 1010.8 |
| 20260510160052 | 15 | 67 | 0.0 | 1.6 | 0.00 | 1.30 | 0.13 | 93 | 1010.8 |
| 20260510155543 | 15 | 234 | 0.0 | 1.6 | 0.00 | 1.30 | 0.13 | 93 | 1010.9 |
| 20260510155057 | 15 | 119 | 0.0 | 1.6 | 0.00 | 1.30 | 0.13 | 93 | 1010.8 |
| 20260510154609 | 15 | 203 | 0.0 | 1.6 | 0.00 | 1.30 | 0.13 | 94 | 1010.8 |
| 20260510154041 | 15 | 84 | 0.0 | 1.6 | 0.00 | 1.30 | 0.13 | 94 | 1010.8 |
| 20260510153611 | 14 | 240 | 0.0 | 1.6 | 0.00 | 1.30 | 0.13 | 95 | 1010.9 |
| 20260510153042 | 14 | 256 | 0.0 | 0.0 | 0.00 | 1.30 | 0.13 | 95 | 1011.1 |
| 20260510152556 | 14 | 198 | 0.0 | 0.0 | 0.00 | 1.30 | 0.13 | 96 | 1011.2 |
| 20260510152108 | 13 | 335 | 0.0 | 0.0 | 0.00 | 1.30 | 0.13 | 96 | 1011.3 |
| 20260510151541 | 13 | 198 | 0.0 | 0.0 | 0.00 | 1.30 | 0.13 | 96 | 1011.3 |
| 20260510151116 | 13 | 123 | 0.0 | 0.0 | 0.00 | 1.30 | 0.13 | 96 | 1011.3 |
| 20260510150547 | 13 | 246 | 0.0 | 0.0 | 0.00 | 1.30 | 0.13 | 96 | 1011.3 |
| 20260510150058 | 13 | 248 | 0.0 | 1.6 | 0.00 | 1.30 | 0.13 | 96 | 1011.2 |
| 20260510145548 | 13 | 277 | 0.0 | 6.4 | 0.00 | 1.30 | 0.13 | 97 | 1011.3 |
| 20260510145040 | 13 | 267 | 0.0 | 6.4 | 0.03 | 1.30 | 0.13 | 96 | 1011.2 |
| 20260510144553 | 13 | 230 | 0.0 | 1.6 | 0.03 | 1.30 | 0.13 | 97 | 1011.2 |
| 20260510144046 | 13 | 230 | 0.0 | 1.6 | 0.03 | 1.30 | 0.13 | 97 | 1011.1 |
| 20260510143558 | 13 | 228 | 0.0 | 1.6 | 0.03 | 1.30 | 0.13 | 97 | 1011.0 |
| 20260510143049 | 13 | 218 | 0.0 | 1.6 | 0.03 | 1.30 | 0.13 | 97 | 1010.9 |
| 20260510142602 | 12 | 218 | 0.0 | 0.0 | 0.03 | 1.30 | 0.13 | 97 | 1010.9 |
| 20260510142053 | 12 | 210 | 0.0 | 0.0 | 0.03 | 1.30 | 0.13 | 97 | 1010.8 |
| 20260510141543 | 12 | 273 | 0.0 | 0.0 | 0.03 | 1.30 | 0.13 | 97 | 1010.8 |
| 20260510141057 | 12 | 188 | 0.0 | 0.0 | 0.03 | 1.30 | 0.13 | 97 | 1010.9 |
| 20260510140549 | 12 | 140 | 0.0 | 0.0 | 0.03 | 1.30 | 0.13 | 97 | 1010.8 |
| 20260510140040 | 12 | 140 | 0.0 | 1.6 | 0.03 | 1.30 | 0.13 | 97 | 1010.8 |
| 20260510135554 | 12 | 140 | 0.0 | 1.6 | 0.03 | 1.30 | 0.13 | 97 | 1010.8 |
| 20260510135046 | 12 | 258 | 0.0 | 0.0 | 0.00 | 1.27 | 0.10 | 97 | 1010.7 |
| 20260510134600 | 12 | 258 | 0.0 | 0.0 | 0.00 | 1.27 | 0.10 | 97 | 1010.7 |
| 20260510134054 | 12 | 259 | 0.0 | 0.0 | 0.00 | 1.27 | 0.10 | 97 | 1010.8 |
| 20260510133602 | 12 | 259 | 0.0 | 0.0 | 0.00 | 1.27 | 0.10 | 97 | 1010.7 |
| 20260510133053 | 12 | 259 | 0.0 | 0.0 | 0.00 | 1.27 | 0.10 | 97 | 1010.6 |
| 20260510132543 | 12 | 261 | 0.0 | 0.0 | 0.00 | 1.27 | 0.10 | 97 | 1010.5 |
| 20260510132059 | 12 | 261 | 0.0 | 0.0 | 0.00 | 1.27 | 0.10 | 97 | 1010.6 |
| 20260510131549 | 12 | 260 | 0.0 | 0.0 | 0.00 | 1.27 | 0.10 | 97 | 1010.4 |
| 20260510131042 | 12 | 260 | 0.0 | 0.0 | 0.00 | 1.27 | 0.10 | 97 | 1010.4 |
| 20260510130558 | 12 | 261 | 0.0 | 0.0 | 0.00 | 1.27 | 0.10 | 97 | 1010.6 |
| 20260510130050 | 12 | 261 | 0.0 | 0.0 | 0.00 | 1.27 | 0.10 | 97 | 1010.6 |
| 20260510125542 | 12 | 261 | 0.0 | 0.0 | 0.00 | 1.27 | 0.10 | 97 | 1010.6 |
| 20260510125056 | 12 | 261 | 0.0 | 0.0 | 0.00 | 1.27 | 0.10 | 97 | 1010.6 |
| 20260510124546 | 12 | 261 | 0.0 | 0.0 | 0.00 | 1.27 | 0.10 | 97 | 1010.6 |
| 20260510124100 | 11 | 261 | 0.0 | 0.0 | 0.00 | 1.27 | 0.10 | 97 | 1010.4 |
| 20260510123552 | 11 | 261 | 0.0 | 1.6 | 0.00 | 1.27 | 0.10 | 97 | 1010.4 |
| 20260510123044 | 11 | 5 | 0.0 | 1.6 | 0.00 | 1.27 | 0.10 | 97 | 1010.4 |
| 20260510122556 | 11 | 48 | 0.0 | 0.0 | 0.00 | 1.27 | 0.10 | 97 | 1010.3 |
| 20260510122110 | 11 | 54 | 0.0 | 0.0 | 0.00 | 1.27 | 0.10 | 97 | 1010.2 |
| 20260510121601 | 11 | 54 | 0.0 | 0.0 | 0.00 | 1.27 | 0.10 | 97 | 1010.2 |
| 20260510121053 | 11 | 54 | 0.0 | 0.0 | 0.00 | 1.27 | 0.10 | 97 | 1010.2 |
| 20260510120544 | 11 | 54 | 0.0 | 0.0 | 0.00 | 1.27 | 0.10 | 97 | 1010.1 |
| 20260510120118 | 11 | 54 | 0.0 | 0.0 | 0.00 | 1.27 | 0.10 | 97 | 1010.1 |
| 20260510115546 | 11 | 54 | 0.0 | 0.0 | 0.00 | 1.27 | 0.10 | 97 | 1010.2 |
| 20260510115056 | 11 | 54 | 0.0 | 1.6 | 0.00 | 1.27 | 0.10 | 97 | 1010.1 |
| 20260510114549 | 11 | 54 | 0.0 | 1.6 | 0.00 | 1.27 | 0.10 | 97 | 1010.0 |
| 20260510114040 | 11 | 69 | 0.0 | 1.6 | 0.00 | 1.27 | 0.10 | 97 | 1009.8 |
| 20260510113553 | 11 | 69 | 0.0 | 0.0 | 0.00 | 1.27 | 0.10 | 97 | 1009.6 |
| 20260510113045 | 11 | 69 | 0.0 | 0.0 | 0.00 | 1.27 | 0.10 | 97 | 1009.5 |
| 20260510112600 | 11 | 69 | 0.0 | 0.0 | 0.00 | 1.27 | 0.10 | 97 | 1009.6 |
| 20260510112049 | 11 | 69 | 0.0 | 0.0 | 0.00 | 1.27 | 0.10 | 97 | 1009.6 |
| 20260510111543 | 10 | 69 | 0.0 | 0.0 | 0.00 | 1.27 | 0.10 | 97 | 1009.5 |
| 20260510111115 | 10 | 69 | 0.0 | 0.0 | 0.00 | 1.27 | 0.10 | 97 | 1009.5 |
| 20260510110547 | 10 | 69 | 0.0 | 0.0 | 0.03 | 1.27 | 0.10 | 97 | 1009.4 |
| 20260510110100 | 10 | 71 | 0.0 | 0.0 | 0.03 | 1.27 | 0.10 | 97 | 1009.5 |
| 20260510105551 | 10 | 71 | 0.0 | 0.0 | 0.03 | 1.27 | 0.10 | 97 | 1009.6 |
| 20260510105041 | 10 | 71 | 0.0 | 1.6 | 0.03 | 1.27 | 0.10 | 97 | 1009.5 |
| 20260510104617 | 10 | 71 | 0.0 | 1.6 | 0.03 | 1.27 | 0.10 | 97 | 1009.5 |
| 20260510104048 | 10 | 65 | 0.0 | 0.0 | 0.03 | 1.27 | 0.10 | 97 | 1009.5 |
| 20260510103541 | 10 | 65 | 0.0 | 0.0 | 0.03 | 1.27 | 0.10 | 97 | 1009.5 |
| 20260510103055 | 10 | 65 | 0.0 | 0.0 | 0.03 | 1.27 | 0.10 | 97 | 1009.4 |
| 20260510102609 | 10 | 65 | 0.0 | 0.0 | 0.03 | 1.27 | 0.10 | 97 | 1009.3 |
| 20260510102040 | 10 | 65 | 0.0 | 0.0 | 0.03 | 1.27 | 0.10 | 97 | 1009.3 |
| 20260510101554 | 10 | 65 | 0.0 | 1.6 | 0.03 | 1.27 | 0.10 | 97 | 1009.3 |
| 20260510101046 | 10 | 65 | 0.0 | 1.6 | 0.00 | 1.24 | 0.08 | 97 | 1009.4 |
| 20260510100558 | 10 | 71 | 0.0 | 1.6 | 0.00 | 1.24 | 0.08 | 97 | 1009.5 |
| 20260510100112 | 10 | 71 | 0.0 | 0.0 | 0.00 | 1.24 | 0.08 | 97 | 1009.4 |
| 20260510095544 | 10 | 74 | 0.0 | 0.0 | 0.00 | 1.24 | 0.08 | 97 | 1009.4 |
| 20260510095052 | 10 | 24 | 0.0 | 0.0 | 0.00 | 1.24 | 0.08 | 97 | 1009.2 |
| 20260510094606 | 10 | 24 | 0.0 | 0.0 | 0.00 | 1.24 | 0.08 | 97 | 1009.4 |
| 20260510094057 | 10 | 24 | 0.0 | 0.0 | 0.00 | 1.24 | 0.08 | 97 | 1009.5 |
| 20260510093550 | 10 | 24 | 0.0 | 0.0 | 0.00 | 1.24 | 0.08 | 97 | 1009.6 |
| 20260510093040 | 10 | 24 | 0.0 | 0.0 | 0.00 | 1.24 | 0.08 | 97 | 1009.6 |
| 20260510092554 | 10 | 24 | 0.0 | 0.0 | 0.00 | 1.24 | 0.08 | 97 | 1009.7 |
| 20260510092047 | 10 | 24 | 0.0 | 1.6 | 0.00 | 1.24 | 0.08 | 97 | 1009.7 |
| 20260510091600 | 10 | 24 | 0.0 | 1.6 | 0.00 | 1.24 | 0.08 | 97 | 1009.7 |
| 20260510091114 | 10 | 24 | 0.0 | 0.0 | 0.00 | 1.24 | 0.08 | 97 | 1009.6 |
| 20260510090546 | 10 | 24 | 0.0 | 0.0 | 0.00 | 1.24 | 0.08 | 97 | 1009.6 |
| 20260510090059 | 10 | 24 | 0.0 | 0.0 | 0.00 | 1.24 | 0.08 | 97 | 1009.7 |
| 20260510085549 | 10 | 24 | 0.0 | 0.0 | 0.00 | 1.24 | 0.08 | 97 | 1009.7 |
| 20260510085104 | 10 | 24 | 0.0 | 0.0 | 0.00 | 1.24 | 0.08 | 97 | 1009.7 |
| 20260510084555 | 10 | 24 | 0.0 | 1.6 | 0.03 | 1.24 | 0.08 | 97 | 1009.6 |
| 20260510084047 | 10 | 24 | 0.0 | 1.6 | 0.03 | 1.24 | 0.08 | 97 | 1009.7 |
| 20260510083621 | 10 | 24 | 0.0 | 1.6 | 0.03 | 1.24 | 0.08 | 97 | 1009.8 |
| 20260510083052 | 10 | 25 | 0.0 | 1.6 | 0.03 | 1.24 | 0.08 | 97 | 1009.9 |
| 20260510082544 | 10 | 26 | 0.0 | 0.0 | 0.03 | 1.24 | 0.08 | 97 | 1009.9 |
| 20260510082117 | 10 | 234 | 0.0 | 0.0 | 0.03 | 1.24 | 0.08 | 97 | 1009.8 |
| 20260510081549 | 10 | 299 | 0.0 | 0.0 | 0.03 | 1.24 | 0.08 | 97 | 1009.7 |
| 20260510081040 | 10 | 299 | 0.0 | 0.0 | 0.03 | 1.24 | 0.08 | 97 | 1009.6 |
| 20260510080613 | 10 | 300 | 0.0 | 0.0 | 0.03 | 1.24 | 0.08 | 97 | 1009.5 |
| 20260510080043 | 10 | 300 | 0.0 | 0.0 | 0.03 | 1.27 | 0.08 | 97 | 1009.5 |
| 20260510075619 | 10 | 300 | 0.0 | 0.0 | 0.03 | 1.27 | 0.08 | 97 | 1009.2 |
| 20260510075049 | 10 | 300 | 0.0 | 0.0 | 0.03 | 1.27 | 0.08 | 97 | 1009.0 |
| 20260510074542 | 10 | 300 | 0.0 | 0.0 | 0.00 | 1.24 | 0.05 | 97 | 1008.9 |
| 20260510074057 | 10 | 300 | 0.0 | 0.0 | 0.00 | 1.24 | 0.05 | 97 | 1008.9 |
| 20260510073548 | 10 | 300 | 0.0 | 0.0 | 0.00 | 1.24 | 0.05 | 97 | 1008.9 |
| 20260510073042 | 10 | 300 | 0.0 | 0.0 | 0.00 | 1.24 | 0.05 | 97 | 1009.0 |
| 20260510072553 | 10 | 300 | 0.0 | 0.0 | 0.00 | 1.24 | 0.05 | 97 | 1009.0 |
| 20260510072047 | 10 | 300 | 0.0 | 0.0 | 0.00 | 1.24 | 0.05 | 97 | 1009.0 |
| 20260510071540 | 10 | 300 | 0.0 | 0.0 | 0.00 | 1.24 | 0.05 | 97 | 1008.9 |
| 20260510071053 | 10 | 300 | 0.0 | 0.0 | 0.00 | 1.24 | 0.05 | 97 | 1009.1 |
| 20260510070606 | 10 | 300 | 0.0 | 0.0 | 0.00 | 1.24 | 0.05 | 97 | 1009.1 |
| 20260510070059 | 10 | 300 | 0.0 | 0.0 | 0.00 | 1.24 | 0.05 | 97 | 1009.1 |
| 20260510065551 | 10 | 300 | 0.0 | 0.0 | 0.00 | 1.24 | 0.05 | 97 | 1009.1 |
| 20260510065044 | 10 | 300 | 0.0 | 0.0 | 0.00 | 1.24 | 0.05 | 97 | 1009.1 |
| 20260510064556 | 11 | 300 | 0.0 | 0.0 | 0.00 | 1.24 | 0.05 | 97 | 1009.2 |
| 20260510064046 | 10 | 300 | 0.0 | 0.0 | 0.00 | 1.24 | 0.05 | 97 | 1009.2 |
| 20260510063558 | 10 | 300 | 0.0 | 0.0 | 0.00 | 1.24 | 0.05 | 97 | 1009.1 |
| 20260510063109 | 10 | 300 | 0.0 | 0.0 | 0.00 | 1.24 | 0.05 | 97 | 1009.1 |
| 20260510062541 | 11 | 300 | 0.0 | 0.0 | 0.03 | 1.24 | 0.05 | 97 | 1009.1 |
| 20260510062053 | 11 | 300 | 0.0 | 0.0 | 0.03 | 1.24 | 0.05 | 97 | 1009.1 |
| 20260510061544 | 11 | 300 | 0.0 | 0.0 | 0.03 | 1.24 | 0.05 | 97 | 1008.9 |
| 20260510061053 | 11 | 300 | 0.0 | 0.0 | 0.03 | 1.24 | 0.05 | 97 | 1008.9 |
| 20260510060546 | 11 | 300 | 0.0 | 0.0 | 0.03 | 1.24 | 0.05 | 97 | 1008.8 |
| 20260510060058 | 11 | 300 | 0.0 | 0.0 | 0.03 | 1.24 | 0.05 | 97 | 1008.7 |
| 20260510055610 | 11 | 298 | 0.0 | 0.0 | 0.03 | 1.24 | 0.05 | 97 | 1008.7 |
| 20260510055103 | 11 | 299 | 0.0 | 0.0 | 0.03 | 1.24 | 0.05 | 97 | 1008.7 |
| 20260510054555 | 11 | 299 | 0.0 | 0.0 | 0.03 | 1.24 | 0.05 | 97 | 1008.7 |
| 20260510054046 | 11 | 299 | 0.0 | 0.0 | 0.03 | 1.24 | 0.05 | 97 | 1008.7 |
| 20260510053557 | 11 | 299 | 0.0 | 0.0 | 0.03 | 1.24 | 0.05 | 97 | 1008.8 |
| 20260510053109 | 11 | 299 | 0.0 | 0.0 | 0.00 | 1.22 | 0.03 | 97 | 1008.8 |
| 20260510052540 | 11 | 299 | 0.0 | 0.0 | 0.00 | 1.22 | 0.03 | 97 | 1009.0 |
| 20260510052054 | 11 | 299 | 0.0 | 0.0 | 0.00 | 1.22 | 0.03 | 97 | 1009.0 |
| 20260510051607 | 10 | 299 | 0.0 | 0.0 | 0.00 | 1.22 | 0.03 | 97 | 1009.0 |
| 20260510051059 | 10 | 299 | 0.0 | 0.0 | 0.00 | 1.22 | 0.03 | 97 | 1009.0 |
| 20260510050549 | 10 | 299 | 0.0 | 0.0 | 0.03 | 1.22 | 0.03 | 97 | 1009.1 |
| 20260510050040 | 10 | 299 | 0.0 | 0.0 | 0.03 | 1.22 | 0.03 | 97 | 1009.1 |
| 20260510045552 | 10 | 299 | 0.0 | 0.0 | 0.03 | 1.22 | 0.03 | 97 | 1009.1 |
| 20260510045044 | 10 | 299 | 0.0 | 0.0 | 0.03 | 1.22 | 0.03 | 97 | 1009.1 |
| 20260510044556 | 11 | 299 | 0.0 | 0.0 | 0.03 | 1.22 | 0.03 | 97 | 1009.0 |
| 20260510044049 | 11 | 299 | 0.0 | 0.0 | 0.03 | 1.22 | 0.03 | 97 | 1009.0 |
| 20260510043601 | 11 | 299 | 0.0 | 0.0 | 0.03 | 1.22 | 0.03 | 97 | 1009.0 |
| 20260510043049 | 11 | 299 | 0.0 | 0.0 | 0.03 | 1.22 | 0.03 | 97 | 1009.1 |
| 20260510042539 | 11 | 299 | 0.0 | 0.0 | 0.03 | 1.22 | 0.03 | 97 | 1008.9 |
| 20260510042052 | 11 | 299 | 0.0 | 0.0 | 0.03 | 1.22 | 0.03 | 96 | 1008.8 |
| 20260510041605 | 11 | 299 | 0.0 | 0.0 | 0.03 | 1.22 | 0.03 | 96 | 1008.7 |
| 20260510041058 | 11 | 299 | 0.0 | 0.0 | 0.03 | 1.22 | 0.03 | 97 | 1008.8 |
| 20260510040548 | 11 | 299 | 0.0 | 0.0 | 0.00 | 1.19 | 0.00 | 97 | 1008.9 |
| 20260510040039 | 11 | 299 | 0.0 | 0.0 | 0.00 | 1.19 | 1.19 | 96 | 1008.8 |
| 20260510035552 | 11 | 299 | 0.0 | 0.0 | 0.03 | 1.19 | 1.19 | 96 | 1008.7 |
| 20260510035043 | 11 | 299 | 0.0 | 0.0 | 0.03 | 1.19 | 1.19 | 96 | 1008.6 |
| 20260510034558 | 11 | 299 | 0.0 | 0.0 | 0.03 | 1.19 | 1.19 | 97 | 1008.6 |
| 20260510034047 | 11 | 299 | 0.0 | 0.0 | 0.03 | 1.19 | 1.19 | 97 | 1008.6 |
| 20260510033541 | 11 | 299 | 0.0 | 0.0 | 0.03 | 1.19 | 1.19 | 97 | 1008.6 |
| 20260510033053 | 11 | 299 | 0.0 | 0.0 | 0.03 | 1.19 | 1.19 | 97 | 1008.7 |
| 20260510032548 | 11 | 298 | 0.0 | 0.0 | 0.03 | 1.19 | 1.19 | 96 | 1008.8 |
| 20260510032040 | 11 | 298 | 0.0 | 0.0 | 0.03 | 1.19 | 1.19 | 96 | 1008.8 |
| 20260510031554 | 11 | 298 | 0.0 | 0.0 | 0.03 | 1.19 | 1.19 | 96 | 1008.8 |
| 20260510031046 | 11 | 298 | 0.0 | 0.0 | 0.03 | 1.19 | 1.19 | 96 | 1008.8 |
| 20260510030559 | 11 | 298 | 0.0 | 0.0 | 0.05 | 1.19 | 1.19 | 96 | 1008.7 |
| 20260510030049 | 11 | 298 | 0.0 | 0.0 | 0.05 | 1.19 | 1.19 | 96 | 1008.8 |
| 20260510025540 | 11 | 317 | 0.0 | 0.0 | 0.03 | 1.17 | 1.17 | 96 | 1008.9 |
| 20260510025052 | 11 | 317 | 0.0 | 0.0 | 0.03 | 1.17 | 1.17 | 96 | 1008.9 |
| 20260510024543 | 11 | 317 | 0.0 | 0.0 | 0.03 | 1.17 | 1.17 | 96 | 1008.9 |
| 20260510024057 | 11 | 317 | 0.0 | 0.0 | 0.03 | 1.17 | 1.17 | 96 | 1009.0 |
| 20260510023610 | 11 | 317 | 0.0 | 0.0 | 0.03 | 1.17 | 1.17 | 96 | 1008.9 |
| 20260510023041 | 11 | 317 | 0.0 | 0.0 | 0.03 | 1.17 | 1.17 | 96 | 1009.0 |
| 20260510022554 | 11 | 317 | 0.0 | 0.0 | 0.03 | 1.17 | 1.17 | 96 | 1008.9 |
| 20260510022045 | 11 | 310 | 0.0 | 0.0 | 0.05 | 1.17 | 1.17 | 96 | 1009.0 |
| 20260510021615 | 11 | 310 | 0.0 | 0.0 | 0.05 | 1.17 | 1.17 | 96 | 1008.8 |
| 20260510021045 | 11 | 310 | 0.0 | 0.0 | 0.03 | 1.14 | 1.14 | 96 | 1008.8 |
| 20260510020558 | 11 | 310 | 0.0 | 0.0 | 0.03 | 1.14 | 1.14 | 96 | 1008.7 |
| 20260510020051 | 11 | 310 | 0.0 | 0.0 | 0.03 | 1.14 | 1.14 | 96 | 1008.7 |
| 20260510015543 | 11 | 310 | 0.0 | 0.0 | 0.03 | 1.14 | 1.14 | 96 | 1008.8 |
| 20260510015056 | 11 | 309 | 0.0 | 0.0 | 0.05 | 1.14 | 1.14 | 96 | 1008.8 |
| 20260510014550 | 11 | 309 | 0.0 | 0.0 | 0.05 | 1.14 | 1.14 | 96 | 1008.8 |
| 20260510014042 | 11 | 309 | 0.0 | 0.0 | 0.05 | 1.14 | 1.14 | 96 | 1008.7 |
| 20260510013556 | 11 | 309 | 0.0 | 0.0 | 0.05 | 1.14 | 1.14 | 96 | 1008.7 |
| 20260510013048 | 11 | 309 | 0.0 | 0.0 | 0.05 | 1.14 | 1.14 | 96 | 1008.7 |
| 20260510012601 | 11 | 309 | 0.0 | 0.0 | 0.05 | 1.14 | 1.14 | 96 | 1008.7 |
| 20260510012053 | 11 | 309 | 0.0 | 0.0 | 0.03 | 1.12 | 1.12 | 96 | 1008.6 |
| 20260510011544 | 11 | 309 | 0.0 | 0.0 | 0.05 | 1.12 | 1.12 | 96 | 1008.5 |
| 20260510011057 | 11 | 309 | 0.0 | 0.0 | 0.05 | 1.12 | 1.12 | 96 | 1008.4 |
| 20260510010609 | 11 | 309 | 0.0 | 0.0 | 0.05 | 1.12 | 1.12 | 96 | 1008.3 |
| 20260510010039 | 11 | 309 | 0.0 | 0.0 | 0.08 | 1.12 | 1.12 | 96 | 1008.2 |
| 20260510005554 | 11 | 309 | 0.0 | 0.0 | 0.08 | 1.12 | 1.12 | 96 | 1008.2 |
| 20260510005045 | 11 | 309 | 0.0 | 0.0 | 0.05 | 1.09 | 1.09 | 96 | 1008.1 |
| 20260510004619 | 11 | 309 | 0.0 | 0.0 | 0.05 | 1.09 | 1.09 | 96 | 1008.1 |
| 20260510004111 | 11 | 309 | 0.0 | 0.0 | 0.05 | 1.09 | 1.09 | 96 | 1008.2 |
| 20260510003541 | 11 | 310 | 0.0 | 0.0 | 0.08 | 1.09 | 1.09 | 96 | 1008.2 |
| 20260510003053 | 11 | 309 | 0.0 | 0.0 | 0.08 | 1.09 | 1.09 | 96 | 1008.1 |
| 20260510002543 | 11 | 309 | 0.0 | 0.0 | 0.08 | 1.09 | 1.09 | 96 | 1008.0 |
| 20260510002052 | 11 | 309 | 0.0 | 0.0 | 0.08 | 1.09 | 1.09 | 96 | 1008.0 |
| 20260510001545 | 11 | 310 | 0.0 | 0.0 | 0.08 | 1.07 | 1.07 | 96 | 1007.9 |
| 20260510001058 | 12 | 310 | 0.0 | 0.0 | 0.08 | 1.07 | 1.07 | 96 | 1007.9 |
| 20260510000551 | 12 | 310 | 0.0 | 0.0 | 0.08 | 1.07 | 1.07 | 96 | 1007.9 |
| 20260510000043 | 12 | 309 | 0.0 | 0.0 | 0.05 | 1.04 | 1.04 | 96 | 1007.8 |
| 20260509235555 | 12 | 310 | 0.0 | 0.0 | 0.08 | 1.04 | 1.04 | 96 | 1007.9 |
| 20260509235048 | 12 | 309 | 0.0 | 0.0 | 0.08 | 1.04 | 1.04 | 96 | 1008.0 |
| 20260509234539 | 12 | 309 | 0.0 | 0.0 | 0.10 | 1.04 | 1.04 | 96 | 1008.2 |
| 20260509234052 | 12 | 309 | 0.0 | 0.0 | 0.10 | 1.04 | 1.04 | 96 | 1008.2 |
| 20260509233606 | 12 | 309 | 0.0 | 0.0 | 0.08 | 1.02 | 1.02 | 96 | 1008.2 |
| 20260509233056 | 12 | 309 | 0.0 | 0.0 | 0.08 | 1.02 | 1.02 | 96 | 1008.1 |
| 20260509232547 | 12 | 309 | 0.0 | 0.0 | 0.10 | 1.02 | 1.02 | 96 | 1008.1 |
| 20260509232059 | 12 | 309 | 0.0 | 0.0 | 0.10 | 1.02 | 1.02 | 96 | 1008.2 |
| 20260509231548 | 12 | 309 | 0.0 | 0.0 | 0.10 | 0.99 | 0.99 | 96 | 1008.3 |
| 20260509231101 | 12 | 309 | 0.0 | 0.0 | 0.10 | 0.99 | 0.99 | 96 | 1008.2 |
| 20260509230550 | 12 | 309 | 0.0 | 0.0 | 0.13 | 0.99 | 0.99 | 96 | 1008.2 |
| 20260509225552 | 12 | 277 | 0.0 | 0.0 | 0.13 | 0.97 | 0.97 | 96 | 1008.6 |
| 20260509225044 | 12 | 298 | 0.0 | 0.0 | 0.13 | 0.97 | 0.97 | 95 | 1008.4 |
| 20260509224557 | 12 | 299 | 0.0 | 0.0 | 0.10 | 0.94 | 0.94 | 96 | 1008.1 |
| 20260509224112 | 12 | 297 | 0.0 | 0.0 | 0.13 | 0.94 | 0.94 | 95 | 1007.9 |
| 20260509223541 | 12 | 300 | 0.0 | 0.0 | 0.15 | 0.94 | 0.94 | 95 | 1008.2 |
| 20260509223050 | 12 | 300 | 0.0 | 0.0 | 0.13 | 0.91 | 0.91 | 95 | 1008.5 |
| 20260509222600 | 12 | 300 | 0.0 | 0.0 | 0.13 | 0.91 | 0.91 | 95 | 1008.7 |
| 20260509222052 | 12 | 300 | 0.0 | 0.0 | 0.13 | 0.89 | 0.89 | 95 | 1008.7 |
| 20260509221604 | 12 | 300 | 0.0 | 0.0 | 0.13 | 0.89 | 0.89 | 95 | 1008.8 |
| 20260509221058 | 12 | 300 | 0.0 | 0.0 | 0.15 | 0.89 | 0.89 | 95 | 1008.7 |
| 20260509220550 | 12 | 300 | 0.0 | 0.0 | 0.13 | 0.86 | 0.86 | 94 | 1008.7 |
| 20260509220041 | 12 | 300 | 0.0 | 0.0 | 0.15 | 0.86 | 0.86 | 94 | 1009.0 |
| 20260509215553 | 12 | 300 | 0.0 | 0.0 | 0.13 | 0.84 | 0.84 | 95 | 1008.9 |
| 20260509215044 | 12 | 300 | 0.0 | 0.0 | 0.15 | 0.84 | 0.84 | 94 | 1008.8 |
| 20260509214558 | 12 | 300 | 0.0 | 0.0 | 0.15 | 0.84 | 0.84 | 94 | 1008.9 |
| 20260509214048 | 12 | 300 | 0.0 | 0.0 | 0.15 | 0.81 | 0.81 | 94 | 1009.1 |
| 20260509213622 | 13 | 300 | 0.0 | 0.0 | 0.15 | 0.79 | 0.79 | 94 | 1009.1 |
| 20260509213051 | 13 | 300 | 0.0 | 0.0 | 0.15 | 0.79 | 0.79 | 94 | 1009.2 |
| 20260509212543 | 13 | 300 | 0.0 | 0.0 | 0.18 | 0.79 | 0.79 | 94 | 1009.2 |
| 20260509212057 | 13 | 300 | 0.0 | 0.0 | 0.18 | 0.76 | 0.76 | 94 | 1009.1 |
| 20260509211550 | 13 | 300 | 0.0 | 0.0 | 0.18 | 0.76 | 0.76 | 94 | 1009.1 |
| 20260509211041 | 13 | 300 | 0.0 | 0.0 | 0.18 | 0.74 | 0.74 | 94 | 1009.1 |
| 20260509210554 | 13 | 300 | 0.0 | 0.0 | 0.20 | 0.74 | 0.74 | 94 | 1009.0 |
| 20260509210108 | 13 | 300 | 0.0 | 0.0 | 0.20 | 0.71 | 0.71 | 94 | 1008.8 |
| 20260509205559 | 13 | 298 | 0.0 | 0.0 | 0.20 | 0.69 | 0.69 | 94 | 1009.1 |
| 20260509205050 | 13 | 298 | 0.0 | 0.0 | 0.20 | 0.69 | 0.69 | 94 | 1009.1 |
| 20260509204542 | 13 | 298 | 0.0 | 1.6 | 0.23 | 0.66 | 0.66 | 94 | 1009.0 |
| 20260509204051 | 13 | 298 | 0.0 | 1.6 | 0.23 | 0.66 | 0.66 | 94 | 1009.0 |
| 20260509203542 | 13 | 298 | 0.0 | 1.6 | 0.25 | 0.64 | 0.64 | 94 | 1009.0 |
| 20260509203057 | 13 | 294 | 0.0 | 1.6 | 0.25 | 0.64 | 0.64 | 94 | 1008.9 |
| 20260509202550 | 13 | 294 | 0.0 | 1.6 | 0.28 | 0.61 | 0.61 | 94 | 1008.9 |
| 20260509202044 | 13 | 300 | 0.0 | 0.0 | 0.28 | 0.58 | 0.58 | 93 | 1008.7 |
| 20260509201619 | 13 | 331 | 0.0 | 0.0 | 0.30 | 0.58 | 0.58 | 93 | 1008.3 |
| 20260509201113 | 13 | 331 | 0.0 | 0.0 | 0.30 | 0.56 | 0.56 | 93 | 1008.3 |
| 20260509200606 | 13 | 285 | 0.0 | 0.0 | 0.30 | 0.53 | 0.53 | 93 | 1008.9 |
| 20260509200121 | 13 | 284 | 0.0 | 0.0 | 0.33 | 0.53 | 0.51 | 93 | 1009.1 |
| 20260509195550 | 13 | 284 | 0.0 | 0.0 | 0.33 | 0.51 | 0.48 | 93 | 1009.0 |
| 20260509195042 | 13 | 284 | 0.0 | 1.6 | 0.33 | 0.48 | 0.46 | 93 | 1009.0 |
| 20260509194615 | 13 | 298 | 0.0 | 1.6 | 0.30 | 0.46 | 0.43 | 93 | 1009.0 |
| 20260509194046 | 13 | 246 | 0.0 | 1.6 | 0.30 | 0.43 | 0.41 | 93 | 1009.2 |
| 20260509193558 | 13 | 246 | 0.0 | 0.0 | 0.30 | 0.41 | 0.38 | 93 | 1009.3 |
| 20260509193049 | 13 | 246 | 0.0 | 1.6 | 0.30 | 0.38 | 0.36 | 92 | 1009.3 |
| 20260509192540 | 12 | 238 | 0.0 | 1.6 | 0.28 | 0.36 | 0.33 | 92 | 1009.2 |
| 20260509192053 | 13 | 223 | 0.0 | 4.8 | 0.25 | 0.33 | 0.30 | 92 | 1009.4 |
| 20260509191607 | 13 | 232 | 0.0 | 4.8 | 0.25 | 0.30 | 0.28 | 92 | 1009.2 |
| 20260509191055 | 13 | 196 | 0.0 | 1.6 | 0.23 | 0.28 | 0.25 | 92 | 1009.3 |